User: anonymous   Login
Location: Unspecified
(0.0000°N, 0.0000°E)
Time: 07:19:29
(UTC+00:00)
Language:

SAR-Lupe-1 - Orbit

View from above orbital plane
View from above orbital plane
View from above satellite
View from above satellite

Ground track
Ground track

The orbit data is extracted from the following two-line orbital elements,

1 29658U 06060A   17261.87342458 0.00002000  00000-0  74652-4 0    03
2 29658  98.1398 321.7433 0005000 351.4652   8.5346 15.27414913    07
Epoch (UTC): 18 September 2017 20:57:43
Eccentricity: 0.0005000
inclination: 98.1398°
perigee height: 480 km
apogee height: 487 km
right ascension of ascending node: 321.7433°
argument of perigee: 351.4652°
revolutions per day: 15.27414913
mean anomaly at epoch: 8.5346°
orbit number at epoch: 0

The dashed part of the orbit path shows where the satellite is in the earth's shadow,  

DLR